Wind_Speed
35 34 33 31 28 27 25 22 20 19 17 15 14 13 12 12 13 12 13 12 13 14 14 14 13 12 10 11 11 9 8 7 7 8 10 10 9 10 10 9 10 10 11 12 12 12 13 13 12 10 10 11 11 12 13 11 10 10 10 10 12 12 12 11 9 10 19 24 25 29 31 30 31 33 34 35 36 35 32 30 30 30 31 31 31
35 34 33 31 30 28 26 23 21 20 18 16 14 13 12 11 12 13 13 13 14 15 15 15 15 14 13 13 14 13 11 9 8 9 10 11 10 10 11 11 11 12 13 14 14 13 14 14 13 12 12 13 14 14 15 14 13 12 12 11 12 13 13 13 12 11 16 23 26 29 31 29 30 33 34 34 36 36 34 32 30 30 30 30 31
35 34 33 32 30 28 26 23 22 21 19 17 15 13 11 10 11 12 13 13 14 16 17 17 17 17 17 17 17 16 15 12 10 10 10 10 9 10 11 12 13 13 14 15 15 14 14 14 14 13 13 15 16 16 17 17 16 15 14 13 13 15 16 15 15 13 14 20 26 28 30 30 31 33 34 34 34 34 34 33 30 29 30 30 31
34 33 33 32 30 28 26 24 23 23 21 19 16 13 11 11 12 13 12 13 15 16 16 16 15 15 16 16 17 18 17 15 12 11 11 9 8 9 11 11 12 12 13 14 14 13 13 14 14 12 13 15 17 17 18 19 19 18 17 15 14 15 18 17 17 17 16 19 25 28 29 29 31 33 33 33 33 32 32 32 30 29 30 30 31
34 34 33 32 30 29 27 26 26 24 23 20 17 14 12 13 13 13 13 14 14 12 12 12 11 10 10 11 12 13 13 14 13 12 12 11 10 10 10 10 10 11 12 12 12 11 12 13 14 13 14 16 17 17 18 19 20 20 19 18 16 17 18 19 19 19 18 20 24 28 29 29 30 32 31 30 31 32 31 30 29 28 29 30 30
34 34 33 32 32 30 29 28 27 25 24 21 17 15 15 16 16 15 14 13 13 12 11 10 10 9 8 8 8 8 9 11 13 13 13 13 12 12 12 11 11 11 11 11 10 10 11 12 13 13 14 16 16 16 17 18 20 21 21 19 18 18 18 20 20 19 20 21 23 25 28 29 28 30 30 28 29 30 31 31 29 27 26 28 30
34 34 33 33 33 33 31 29 27 26 24 21 17 16 17 18 17 16 15 15 14 13 11 10 10 9 8 8 7 7 8 9 11 12 13 13 13 13 13 12 12 12 11 11 10 11 11 12 12 13 14 15 15 15 16 18 19 20 20 20 19 19 19 20 20 20 21 22 21 22 26 28 27 27 29 29 27 27 27 26 26 26 25 25 27
34 34 33 34 34 34 32 29 27 26 24 21 18 17 18 19 18 17 16 16 15 13 12 11 10 9 9 9 9 10 9 9 10 11 12 13 14 13 13 13 14 14 12 12 12 12 12 12 12 13 13 14 14 15 16 17 18 20 20 20 20 19 18 19 20 20 21 21 20 21 23 26 26 26 28 27 24 24 24 24 24 26 26 25 26
34 35 34 34 35 35 32 29 27 25 24 22 19 20 21 20 20 19 18 18 17 16 14 11 10 11 11 11 11 11 10 10 10 11 12 12 13 13 13 14 15 15 14 13 13 13 13 12 12 12 12 13 14 16 16 15 17 19 19 19 19 19 18 19 19 20 20 19 19 19 19 22 24 24 24 24 23 24 27 26 25 26 27 27 28
35 35 35 35 36 36 33 30 27 26 25 23 21 21 22 21 21 21 21 20 19 17 14 12 12 13 14 13 13 12 11 11 10 11 12 13 13 13 14 15 16 15 15 14 14 14 13 11 11 11 12 14 15 16 15 13 14 17 18 18 18 18 18 18 20 20 18 17 19 19 17 18 22 24 23 25 27 27 27 25 24 25 26 24 25
37 37 37 37 38 36 34 31 28 27 26 24 22 22 23 22 22 22 22 21 20 17 15 14 15 15 15 15 15 14 12 11 11 12 14 15 15 15 16 17 16 16 16 15 15 15 13 11 11 11 13 14 15 14 13 12 12 14 16 16 17 18 19 19 21 22 19 17 19 20 17 18 23 26 25 26 27 26 26 25 24 24 22 17 16
38 38 38 38 37 36 35 33 30 28 26 25 24 24 24 24 23 24 24 22 21 18 17 17 16 16 16 16 16 16 15 13 12 13 15 16 16 17 17 17 17 17 17 16 16 15 15 13 12 12 13 13 13 13 12 12 12 12 14 15 16 18 19 20 21 22 22 20 20 22 21 20 23 26 27 27 27 28 28 27 25 24 22 18 16
39 39 38 38 36 36 36 34 31 29 27 26 26 26 26 26 26 27 26 24 21 20 20 19 18 18 18 18 18 18 17 14 13 14 15 15 15 15 15 16 17 18 18 17 16 16 15 14 14 14 13 12 12 13 13 14 13 13 14 15 17 19 20 21 20 20 21 21 22 24 25 23 24 28 31 30 29 30 29 28 27 25 24 23 22
37 37 36 36 35 34 33 33 32 31 29 28 28 28 27 28 29 28 26 23 22 22 22 21 19 18 19 19 19 19 17 15 15 16 16 14 13 12 13 14 16 18 18 16 16 15 15 15 15 16 15 13 13 14 14 15 14 14 15 17 19 21 21 20 18 16 17 18 20 25 27 27 27 31 34 32 30 31 30 30 30 29 28 28 30
36 36 33 32 31 30 29 30 32 32 30 29 29 29 28 29 29 28 26 24 24 24 24 23 21 19 19 19 20 19 18 16 16 16 15 14 12 11 11 12 15 17 17 15 15 15 15 15 16 17 16 14 14 14 14 14 13 14 16 18 21 22 21 18 16 16 17 17 20 24 27 27 29 32 33 33 32 33 34 34 34 33 34 34 33
28 28 28 27 26 25 25 29 32 32 31 29 28 28 29 30 30 28 26 25 25 25 25 23 21 20 19 19 20 20 19 18 17 16 15 14 13 11 10 11 14 15 15 13 13 14 14 14 15 16 16 15 15 14 13 12 12 13 16 20 22 22 20 18 17 18 19 19 21 23 23 25 28 31 32 33 33 34 36 36 35 33 31 28 26
25 25 27 27 26 26 25 29 32 31 29 28 28 30 31 29 27 25 24 24 24 24 25 25 23 23 22 21 21 21 22 21 19 17 16 14 13 11 10 12 13 14 13 12 12 12 12 13 13 14 15 16 15 13 12 12 13 14 17 20 21 21 20 20 20 21 21 21 22 21 21 25 28 30 32 32 32 34 34 32 32 30 25 17 15
28 29 30 29 29 29 27 28 30 29 27 28 30 30 27 24 23 23 23 24 24 25 25 24 24 24 24 23 23 23 23 22 20 18 16 14 13 11 10 12 13 14 13 12 12 12 12 13 13 14 16 15 13 12 13 13 14 16 18 18 18 20 21 21 22 23 23 22 22 21 22 26 28 30 31 31 32 33 31 31 32 30 24 16 14
28 30 31 31 31 30 27 26 28 29 29 30 29 25 23 24 26 26 25 25 26 26 24 23 22 23 24 26 27 27 24 21 20 19 16 14 12 11 11 12 13 14 13 13 13 13 14 14 12 12 13 11 11 13 13 14 16 18 16 14 14 17 20 21 23 24 24 23 22 21 22 26 28 29 29 30 31 32 31 32 33 31 26 22 21
31 32 33 33 31 28 26 26 28 29 29 29 27 24 22 23 25 24 24 23 24 24 24 24 25 26 25 25 28 29 26 22 20 18 16 14 12 11 11 12 13 14 13 14 15 15 16 14 11 9 9 9 11 12 12 15 18 15 11 9 12 15 18 20 21 21 22 21 20 19 22 26 28 29 30 31 32 33 33 34 34 33 29 27 25
32 33 33 30 28 26 26 28 28 28 28 27 24 21 19 19 20 20 20 21 23 24 24 24 26 27 25 22 20 19 18 18 19 18 16 14 12 11 11 12 13 13 13 14 15 17 17 14 11 9 9 10 11 12 15 17 14 8 6 8 11 13 15 17 17 17 17 17 17 19 22 26 28 30 31 32 33 35 35 36 35 34 32 30 28
32 32 30 28 27 26 26 26 25 25 25 24 21 18 17 17 17 16 18 22 24 26 26 25 25 24 22 18 15 11 10 13 16 17 16 14 12 11 11 12 12 12 13 15 17 17 16 14 13 11 10 11 13 15 16 13 7 3 4 8 11 13 13 13 13 15 15 15 15 18 23 26 28 30 31 33 35 37 39 39 38 36 34 32 31
31 29 27 26 25 24 22 22 22 23 22 21 19 18 17 17 15 15 19 23 24 25 25 23 22 21 19 17 16 15 16 16 18 18 17 14 12 12 12 11 11 11 13 16 18 17 15 14 13 12 12 13 15 14 10 5 2 2 5 8 11 13 13 12 13 15 15 15 16 19 23 25 27 29 32 34 37 40 42 41 40 38 35 32 30
26 24 24 24 22 20 19 19 19 19 19 18 17 17 17 16 15 17 20 22 22 24 23 21 21 20 19 18 17 17 18 18 20 20 17 14 13 12 12 11 11 11 13 16 17 17 16 15 14 13 14 15 13 8 5 4 2 3 5 8 12 14 13 14 15 15 15 16 17 19 23 25 26 29 32 34 37 41 42 42 41 40 35 27 25
22 22 21 19 18 17 17 16 16 16 16 16 16 17 17 17 18 18 20 21 22 22 22 22 21 20 18 18 18 17 16 16 19 19 17 14 13 13 12 11 10 11 13 15 16 16 15 15 15 15 14 12 7 6 7 3 3 4 5 8 12 14 14 14 15 16 16 17 19 20 24 26 27 29 32 33 36 40 42 43 43 44 39 22 18
17 17 16 15 16 16 16 15 14 14 14 14 15 15 16 17 17 18 20 21 21 22 22 22 21 20 19 18 18 17 14 14 18 19 17 15 15 14 13 11 9 11 13 14 15 15 15 14 14 12 8 4 4 7 5 3 4 3 4 7 10 13 14 14 15 16 16 18 20 22 24 26 27 29 31 34 36 39 42 44 42 42 44 27 11
15 15 16 17 16 16 16 15 15 14 13 14 14 14 14 14 14 16 19 20 20 21 21 20 19 19 19 18 17 16 14 15 18 19 18 17 16 14 12 9 9 10 12 13 13 14 13 10 6 3 4 7 8 7 5 4 4 4 4 5 9 12 12 11 13 15 16 18 20 22 24 25 26 29 31 33 35 38 41 43 39 37 42 33 6
14 14 16 17 17 16 15 14 15 16 14 13 13 12 11 12 12 14 16 17 18 20 20 19 18 17 16 16 16 15 14 16 19 20 19 18 17 14 11 9 9 9 10 11 11 11 7 2 6 8 9 9 8 6 4 4 4 5 5 6 10 12 10 10 12 13 15 18 20 22 25 25 25 28 30 31 34 37 38 41 39 35 35 31 18
12 15 16 16 15 14 13 14 15 15 13 12 11 10 10 10 11 12 13 14 16 18 18 17 15 14 13 13 14 14 15 18 19 18 17 16 15 12 9 9 8 7 7 8 9 5 3 8 9 8 7 7 5 4 3 4 6 7 7 10 12 13 12 13 14 15 16 18 20 22 24 24 25 27 28 29 32 36 36 38 38 35 31 26 23
14 16 15 14 13 13 12 12 12 11 11 11 11 10 9 9 10 11 12 13 14 14 14 13 11 11 12 12 13 14 16 17 17 16 14 13 13 11 9 7 6 5 4 5 4 1 7 9 8 7 6 5 5 5 6 6 8 9 11 13 15 15 15 14 15 16 17 18 20 21 22 23 24 26 26 26 30 34 34 34 35 34 30 26 23
14 13 12 11 10 9 9 10 10 10 10 11 10 11 10 10 10 12 12 12 12 11 10 8 6 6 8 10 11 13 14 15 14 13 13 12 11 8 6 5 4 3 2 2 2 5 6 7 8 7 6 6 6 7 7 7 9 11 12 14 16 16 16 15 15 15 17 18 20 21 22 23 23 24 24 25 27 31 32 33 33 32 30 25 23
11 10 8 7 7 7 8 9 10 11 12 12 12 13 12 11 10 10 9 9 8 7 5 4 2 3 4 5 7 9 11 11 10 10 11 10 8 7 5 5 5 2 2 2 6 7 5 6 7 7 6 7 8 8 8 8 10 10 11 13 16 15 15 15 14 15 17 19 20 21 22 23 23 23 23 24 26 28 30 30 31 31 30 26 24
10 8 7 6 7 8 9 10 11 12 13 14 14 14 14 14 13 10 8 6 5 4 2 2 2 4 5 5 6 6 7 8 8 8 8 8 8 7 6 6 4 2 2 7 9 8 6 6 7 7 7 9 9 9 9 9 9 9 10 12 14 14 13 13 14 16 17 18 20 21 22 23 23 24 24 25 25 25 26 28 29 29 28 26 25
9 7 6 7 8 8 9 10 12 13 14 14 14 15 15 15 13 11 9 8 6 5 4 4 4 5 5 5 6 6 7 7 6 6 7 8 8 8 7 5 3 3 6 9 9 8 8 7 8 8 8 8 8 9 9 9 9 9 9 11 12 13 13 13 15 17 18 19 20 21 22 23 24 25 25 25 24 24 25 27 28 27 26 25 24
8 7 5 6 8 8 8 9 10 12 13 13 14 15 15 14 13 12 12 11 10 8 7 7 6 6 5 6 6 6 6 5 4 3 4 6 7 7 6 7 8 9 9 8 8 8 8 8 8 7 7 7 7 7 8 9 9 8 8 9 11 13 13 14 16 17 18 19 21 21 22 23 24 24 24 23 23 24 24 26 27 25 25 26 24
7 7 7 7 7 7 6 7 8 9 10 11 12 12 13 13 13 13 13 12 11 10 10 10 8 8 7 8 7 7 6 6 5 3 2 3 4 7 10 12 12 11 10 9 9 9 8 8 8 7 6 6 6 6 7 8 8 9 8 8 9 11 12 14 16 17 18 19 20 21 22 23 24 24 24 23 23 23 22 24 26 25 25 26 24
8 8 8 7 7 6 5 5 6 7 8 9 10 11 11 11 11 11 11 12 12 12 13 13 12 11 10 10 9 9 8 7 6 5 5 6 6 9 12 13 12 10 9 9 9 9 9 8 7 6 6 5 5 5 6 6 7 8 8 7 8 9 10 12 13 15 17 19 20 21 22 23 24 24 23 23 24 24 24 24 26 26 27 27 25
7 7 7 6 6 6 6 6 6 7 7 8 10 11 11 10 9 9 10 12 13 14 16 16 16 15 14 13 12 10 9 8 6 5 5 6 7 8 9 10 9 8 8 8 8 8 8 7 6 5 5 5 4 4 5 5 7 8 8 8 7 7 8 9 11 14 16 18 20 21 21 22 23 23 23 22 23 24 24 24 25 25 26 27 25
6 6 6 6 7 8 9 9 8 7 7 9 10 10 10 10 9 9 10 11 13 14 16 17 17 16 15 13 11 9 8 7 6 5 7 8 8 7 7 8 8 8 8 8 7 6 6 5 5 4 4 4 4 4 5 6 7 8 9 9 8 7 8 9 12 14 16 18 20 21 21 22 23 22 22 22 22 23 23 23 24 23 23 24 24
8 8 8 8 8 9 10 9 7 7 8 9 9 9 9 10 10 10 11 11 12 13 15 17 16 15 12 9 8 7 6 6 8 10 11 11 9 8 8 8 8 8 8 8 7 6 5 5 4 4 3 3 4 5 6 7 7 7 8 9 8 8 8 10 12 14 16 18 19 20 21 22 22 23 23 23 22 23 22 22 23 23 22 22 24
10 10 9 9 10 10 9 7 6 6 6 7 7 8 9 10 10 9 11 12 12 13 15 16 15 11 8 6 6 6 6 8 11 14 14 12 11 10 9 9 9 9 8 8 8 6 5 4 4 3 3 3 4 6 7 7 6 7 8 8 8 8 8 10 12 14 16 18 19 20 21 21 22 23 23 23 23 23 23 22 23 23 23 24 25
10 10 9 9 10 8 7 6 6 6 6 7 8 9 9 9 10 11 12 13 14 15 15 15 12 9 7 7 6 6 8 11 15 16 14 12 11 10 9 9 9 9 8 8 7 6 5 4 4 3 3 4 5 7 8 7 7 8 8 8 8 9 10 11 13 15 16 17 18 19 20 21 22 23 23 23 23 23 24 24 24 24 24 24 25
9 8 9 10 10 7 6 6 7 7 7 7 7 7 6 7 10 12 12 12 13 14 15 15 12 10 9 10 8 8 9 12 14 14 13 11 10 9 7 7 6 6 6 7 6 6 5 4 4 4 3 4 6 8 9 8 8 8 8 8 9 10 11 12 13 14 16 17 18 18 19 20 22 23 23 23 24 24 24 25 25 24 24 24 24
10 10 10 10 10 8 6 6 6 6 6 6 6 6 6 7 9 11 11 11 12 12 14 14 13 12 12 11 10 10 11 12 12 12 13 12 10 9 7 5 5 6 7 7 6 5 4 4 4 4 3 4 5 8 9 8 8 8 8 8 8 9 11 12 13 14 15 16 17 17 18 19 21 22 22 23 23 24 25 25 25 25 25 24 24
10 10 10 10 10 9 8 7 6 6 7 6 6 7 7 7 8 9 10 9 10 12 14 14 13 12 13 13 12 12 12 11 11 13 13 12 10 8 7 6 6 6 7 6 5 5 4 3 3 3 2 3 5 7 8 7 7 7 7 7 7 8 10 12 12 13 14 15 15 16 17 18 20 20 21 22 22 23 24 25 25 25 25 25 24
9 10 10 10 11 10 9 8 8 8 9 9 9 9 8 7 8 9 9 9 10 12 14 15 14 13 13 14 14 13 12 11 12 12 12 10 8 7 7 6 6 6 6 5 5 5 5 4 3 2 1 2 4 7 9 8 7 7 7 6 6 7 9 10 11 11 12 12 13 14 15 16 17 18 19 20 20 21 23 25 25 25 25 25 24
8 9 10 11 11 11 11 11 11 10 11 12 12 11 10 9 9 8 7 8 10 12 14 15 16 15 15 16 16 15 12 11 11 11 10 8 7 7 6 6 7 8 8 7 6 5 5 4 3 2 1 2 3 6 10 10 8 6 6 6 4 5 6 8 9 10 10 10 10 12 13 14 15 16 16 18 19 20 22 23 24 25 25 25 25
7 8 10 12 13 13 13 14 13 13 14 14 14 13 13 12 11 10 9 9 10 12 14 16 17 18 19 19 18 16 14 13 13 12 10 8 7 6 6 8 10 11 10 9 7 6 5 4 3 2 1 1 3 5 9 11 9 6 6 5 4 4 5 6 7 8 9 9 9 10 11 12 13 13 15 16 17 19 21 22 22 24 25 25 26
2 4 8 12 15 15 15 15 15 15 15 15 15 16 16 15 13 13 12 12 13 14 15 16 17 19 21 22 20 19 16 15 15 13 11 10 9 8 8 11 13 12 10 9 8 6 6 5 4 3 2 1 2 4 8 11 10 7 7 6 4 3 4 5 6 7 6 7 8 9 9 9 10 12 13 14 14 17 20 21 21 22 24 25 25
6 4 2 6 9 10 11 14 16 17 17 16 15 16 16 17 16 16 15 15 15 16 17 16 16 19 22 23 22 22 20 17 16 14 13 12 12 10 10 13 14 13 10 9 7 6 7 6 5 4 3 2 2 3 7 11 12 10 8 7 4 2 2 4 5 5 5 6 9 9 8 8 10 11 12 12 12 14 18 20 20 21 23 24 24
7 7 7 5 4 2 0 3 8 12 14 14 12 12 14 15 16 17 18 18 16 16 17 17 16 18 21 23 24 23 20 17 15 15 16 15 15 14 13 13 13 12 11 9 7 6 7 7 6 5 5 4 3 2 5 9 11 10 10 8 5 2 2 2 3 5 5 6 9 9 8 8 11 13 13 12 12 14 17 19 19 19 22 23 23
Wind_Direction
197 198 198 198 198 200 203 205 203 202 202 202 207 212 217 225 230 228 224 227 233 238 244 247 250 249 242 243 249 252 253 251 252 256 257 258 257 256 259 259 264 275 278 275 273 271 272 276 275 265 261 268 266 255 253 260 277 293 303 303 304 308 298 276 262 282 301 307 307 308 312 313 313 315 315 313 314 314 308 297 290 288 285 282 279
197 199 198 197 199 201 203 203 204 205 205 207 213 217 222 223 221 224 229 231 233 237 244 249 253 255 252 251 253 254 252 250 252 255 256 258 257 255 253 252 257 265 269 271 272 270 269 271 272 266 264 268 268 259 254 256 263 274 286 290 293 303 302 284 274 280 298 308 309 309 312 313 311 313 314 312 311 313 310 301 292 287 284 282 280
197 197 197 198 200 200 201 202 204 206 207 209 212 216 220 216 215 226 233 237 243 247 251 254 258 262 260 258 259 258 254 250 249 252 254 257 260 258 254 254 259 264 268 271 276 276 271 266 267 266 264 267 268 264 259 257 260 264 272 280 285 296 302 293 282 280 287 302 307 308 311 312 310 311 313 312 311 310 308 303 295 288 284 281 279
196 196 197 198 198 198 200 203 205 207 210 212 211 208 210 210 215 229 241 252 258 257 256 257 259 261 261 259 261 262 257 249 245 249 251 254 264 266 260 259 263 266 270 275 279 280 275 268 267 269 270 271 272 269 263 261 263 264 266 274 280 292 301 298 291 286 285 295 303 304 307 309 309 310 312 311 311 310 306 302 297 291 286 282 279
195 196 196 196 197 198 201 204 206 208 213 216 212 205 208 216 224 237 248 254 252 245 241 239 239 245 250 253 258 259 253 246 244 249 251 254 267 273 268 265 265 266 270 276 278 277 275 272 272 273 274 275 276 272 267 265 266 267 267 271 279 291 298 298 296 294 290 292 297 302 305 307 308 310 311 310 310 309 306 302 298 293 289 285 280
194 195 195 195 197 200 202 205 207 210 216 217 213 210 216 224 233 243 246 237 225 216 215 216 220 229 234 236 242 244 242 243 247 253 254 256 263 271 272 270 266 265 268 275 279 278 276 273 272 272 272 276 277 275 276 275 271 268 267 270 280 290 293 295 297 297 294 293 294 298 303 306 308 309 311 310 307 305 304 303 302 299 293 288 283
192 193 194 195 198 200 203 206 209 212 217 217 214 216 222 229 236 239 232 221 213 213 219 223 224 227 228 231 247 261 261 256 257 263 263 260 261 266 272 273 266 263 267 278 286 285 281 277 275 274 275 277 279 282 289 289 281 272 268 272 281 285 287 293 296 296 295 296 296 296 300 304 306 306 309 312 308 303 302 302 305 307 302 294 288
189 191 194 196 199 201 204 209 211 214 216 215 216 219 222 227 232 230 225 223 224 232 242 240 229 230 239 249 267 275 270 261 262 269 269 263 259 262 267 267 264 263 268 279 289 290 287 283 280 279 279 277 280 289 298 297 287 276 271 275 281 281 284 291 294 294 295 296 296 295 297 301 304 307 311 313 309 305 305 303 302 303 304 299 292
189 191 194 197 201 204 206 208 210 215 215 213 216 219 220 224 227 229 233 237 240 249 255 245 233 240 250 258 267 267 263 266 265 264 264 261 259 261 262 260 259 262 268 277 287 292 291 287 282 281 281 281 287 296 300 297 288 281 279 280 280 279 283 288 289 290 293 295 295 295 295 298 303 309 312 311 308 305 305 302 297 297 300 299 294
189 192 195 199 202 204 206 207 210 215 215 213 217 221 223 225 228 232 237 240 244 253 254 242 240 249 255 260 263 259 262 272 266 258 261 263 264 264 262 261 259 260 265 273 284 292 293 288 282 282 284 287 293 299 300 294 283 279 282 283 281 280 282 284 285 287 291 291 291 294 293 293 300 307 308 308 308 305 302 299 295 297 299 298 295
190 193 196 200 203 204 205 208 212 215 214 215 220 223 225 227 229 233 235 239 247 251 245 241 247 251 254 258 259 257 263 270 266 263 262 262 265 267 265 264 262 259 261 267 278 289 292 287 283 285 289 293 298 302 303 299 288 281 281 282 280 281 280 280 283 288 289 285 286 289 286 286 298 306 306 307 309 307 303 299 293 292 295 293 293
190 193 197 200 201 203 205 209 214 216 214 217 221 223 225 227 229 232 236 241 246 244 239 243 249 251 252 256 257 256 261 266 268 270 267 263 264 265 265 265 261 258 259 262 272 284 288 287 286 288 292 297 302 304 304 303 298 289 285 284 282 281 281 281 284 288 287 283 282 284 284 287 297 304 304 306 307 307 305 301 292 285 282 279 279
190 193 197 198 199 203 207 210 214 216 216 219 222 223 225 227 230 234 238 242 242 241 242 246 250 251 252 255 257 258 260 263 267 272 271 264 256 254 258 260 257 256 258 262 272 281 284 286 287 289 294 298 302 306 305 302 298 291 288 288 287 286 287 288 288 287 285 281 279 282 290 293 294 299 305 307 306 305 304 302 297 287 277 272 272
189 192 195 196 198 204 209 212 216 218 218 220 222 224 226 229 233 236 239 239 239 241 243 245 250 252 252 255 260 260 259 262 269 273 268 255 246 250 258 258 257 257 259 264 274 280 283 285 286 290 293 295 300 308 307 302 296 290 289 291 292 294 296 294 293 292 290 285 281 285 293 296 293 299 307 309 306 302 299 298 298 293 284 278 274
188 190 191 191 197 206 212 214 217 218 218 220 222 224 227 231 234 237 238 238 240 243 245 246 249 251 251 254 256 258 261 266 272 271 258 247 248 256 262 263 263 261 260 266 274 278 282 285 287 290 291 291 298 305 304 300 296 291 293 298 301 302 301 297 296 299 299 297 291 289 293 298 301 306 311 311 308 304 300 296 294 292 290 286 278
182 183 182 186 198 212 216 214 214 214 215 217 219 223 228 232 236 238 238 240 244 247 247 248 251 253 253 252 252 256 262 267 269 261 245 242 251 256 261 270 269 263 261 266 273 278 283 286 288 289 286 287 294 300 300 298 293 292 299 306 307 305 303 303 304 304 304 306 304 300 304 313 317 317 316 314 311 309 305 298 293 291 287 283 275
172 177 185 197 214 225 221 213 211 213 213 216 221 227 230 234 237 240 242 246 249 251 251 253 256 256 255 252 252 258 263 265 263 251 239 240 246 251 264 272 266 260 261 267 276 282 284 285 285 283 282 286 289 293 298 295 289 295 305 308 307 304 305 310 310 306 306 309 307 307 315 324 325 323 321 317 314 312 305 296 291 289 282 273 269
174 183 196 213 228 230 224 216 214 214 216 222 228 230 230 232 237 242 245 248 250 253 256 259 260 262 263 261 259 260 263 264 257 242 234 238 242 251 267 269 259 255 260 270 280 286 288 288 285 280 281 284 284 290 297 290 288 301 307 305 303 303 308 314 313 310 310 309 307 309 317 326 328 325 322 319 318 316 306 295 293 289 279 270 266
185 196 209 223 230 228 223 219 218 220 223 229 231 230 229 232 237 241 244 246 250 253 255 257 260 269 276 277 274 268 261 257 251 239 232 234 242 257 266 259 253 254 261 274 283 289 295 295 291 282 277 279 286 293 295 289 293 305 307 300 300 305 311 315 313 310 309 307 308 314 322 328 327 323 320 320 322 320 310 301 297 287 277 275 270
200 209 218 223 225 225 226 225 224 224 226 229 230 229 230 233 235 238 242 244 246 249 250 252 255 261 264 269 278 277 266 255 246 236 230 233 243 256 256 249 250 255 264 279 288 294 299 299 293 283 279 286 294 295 293 294 299 304 302 303 309 309 311 312 308 307 306 303 309 320 326 328 325 320 320 321 322 322 316 309 301 288 278 276 269
210 215 219 222 225 228 229 227 225 225 227 230 230 227 228 230 229 232 238 241 240 242 249 255 258 261 259 260 274 284 279 266 250 233 228 235 243 249 248 243 246 255 267 281 290 297 301 300 295 287 283 291 296 296 297 298 297 292 294 317 323 316 311 309 307 309 309 306 313 324 328 326 322 320 321 323 324 323 320 314 306 294 283 274 266
212 215 218 223 228 230 227 225 224 226 228 229 226 222 225 228 225 230 241 245 245 246 252 257 258 260 261 256 255 258 262 265 256 243 237 237 237 240 241 238 242 255 270 283 292 297 299 297 296 294 290 296 300 299 297 292 277 266 303 329 334 327 321 318 318 321 322 319 321 325 326 324 320 321 325 327 327 327 323 319 312 303 291 276 262
210 214 220 225 228 225 222 222 224 225 227 227 224 223 226 226 225 238 249 250 249 248 249 249 248 250 252 247 243 239 238 245 252 251 244 235 230 232 232 232 241 256 273 287 293 296 295 293 295 296 296 301 302 295 282 252 214 311 331 341 340 334 332 334 334 332 330 328 327 325 323 321 319 322 326 327 329 330 327 323 318 310 300 283 261
210 214 219 222 222 219 217 220 222 223 223 221 219 219 219 221 230 244 249 247 243 240 239 238 236 237 240 242 242 241 242 248 253 250 241 232 228 228 228 232 244 261 279 289 291 291 292 293 296 298 298 300 296 272 215 163 77 355 344 344 340 337 337 340 342 339 332 329 330 325 321 319 320 324 326 326 330 332 329 327 326 323 315 293 258
208 212 214 215 216 213 212 214 215 217 218 215 214 213 213 220 230 235 234 231 230 231 234 236 234 233 236 242 246 248 253 257 253 243 233 228 227 226 227 234 248 269 283 286 286 288 291 294 297 297 294 290 269 200 166 117 33 359 346 345 340 338 340 344 348 344 333 330 330 324 319 321 324 328 329 330 334 337 335 333 333 337 338 319 249
197 195 194 201 208 206 204 202 201 205 209 209 213 218 222 229 233 229 224 223 226 232 235 237 237 237 238 243 249 255 260 258 247 235 225 222 225 225 228 236 254 273 280 283 285 287 288 290 290 286 275 249 179 158 139 73 26 3 355 347 338 338 344 349 351 347 338 333 331 324 322 326 329 333 337 340 341 341 340 338 336 341 348 344 242
188 175 174 182 187 188 190 190 188 191 196 201 209 218 224 228 229 226 224 225 228 233 237 236 235 236 241 248 255 261 260 247 235 225 219 220 223 223 229 243 261 271 275 279 284 287 288 288 280 236 155 131 128 126 105 62 26 10 12 355 336 337 345 350 351 351 346 339 333 329 331 334 335 339 344 344 343 343 345 343 339 343 351 355 331
185 174 176 175 172 176 185 188 186 186 189 195 204 210 214 218 221 226 230 231 232 236 238 237 237 241 250 260 265 266 258 241 228 222 220 224 226 227 237 258 271 273 275 282 289 291 285 216 141 131 125 122 122 116 94 54 15 4 11 359 343 340 347 353 354 357 356 348 340 338 341 341 341 343 346 344 342 345 348 347 342 342 352 1 11
186 182 179 175 176 181 186 189 188 185 183 188 196 201 206 214 222 229 235 236 239 243 245 247 252 258 262 264 263 258 250 241 232 226 224 228 232 237 251 269 277 274 276 287 296 289 164 142 134 125 117 115 111 88 52 19 7 10 14 7 359 358 3 4 1 2 2 355 347 345 346 346 345 347 348 345 342 345 350 350 344 342 350 4 13
185 187 185 184 188 190 190 191 191 188 188 191 195 196 203 215 225 233 238 240 243 248 252 258 265 264 259 259 258 252 247 243 237 228 225 231 239 247 263 275 270 259 272 301 314 124 132 125 116 108 99 88 67 46 38 26 17 20 19 13 9 8 9 8 6 6 6 360 354 351 351 350 350 349 348 346 344 346 351 352 347 344 351 3 12
177 181 184 184 186 189 193 194 192 195 200 202 202 202 203 210 222 231 236 240 244 251 261 272 274 259 253 256 255 250 246 244 239 232 230 236 242 250 265 261 231 230 291 345 102 137 133 115 101 93 83 72 58 48 46 38 27 23 19 14 12 11 9 8 8 10 8 3 359 358 357 355 353 350 350 349 347 347 351 353 351 349 352 360 9
176 173 171 171 175 177 181 187 193 200 203 203 205 206 202 198 203 213 222 229 238 250 263 272 253 225 226 234 243 245 239 232 226 222 223 231 238 243 237 209 201 237 309 143 146 144 131 108 94 84 74 71 64 53 50 44 34 28 22 14 11 11 10 9 12 15 13 6 3 1 0 358 355 353 355 356 353 349 350 353 353 353 352 357 5
168 163 161 167 175 175 178 188 198 203 203 203 205 207 205 202 198 195 198 208 221 231 227 199 188 195 201 209 221 227 221 212 209 212 221 232 237 233 220 205 210 265 198 163 151 132 115 105 94 85 77 72 64 54 49 44 36 34 31 20 13 12 14 17 20 22 18 11 8 5 2 1 360 359 1 2 359 354 352 354 355 354 354 356 0
152 151 161 178 186 186 190 196 200 201 204 206 208 209 212 214 209 201 195 192 191 192 186 179 184 191 199 208 209 207 208 210 212 222 236 241 241 238 230 210 178 144 151 153 139 118 110 102 92 85 76 67 60 53 45 39 35 34 32 23 15 14 19 24 26 25 20 15 12 10 7 6 6 3 2 4 2 359 357 358 358 356 355 355 356
151 151 164 190 194 189 192 197 198 199 201 204 207 211 214 216 216 216 210 200 192 188 184 183 186 187 190 199 201 200 203 201 197 219 245 250 250 244 220 177 147 132 131 133 122 112 109 101 93 87 77 68 64 57 48 41 34 29 25 20 15 15 20 25 26 24 22 17 14 11 9 9 9 8 5 4 5 3 360 359 358 357 357 358 356
156 161 165 173 176 175 179 187 191 196 201 206 210 215 217 216 217 219 213 204 201 196 187 182 182 181 186 195 195 187 177 164 149 143 157 175 198 194 172 152 138 126 123 123 123 120 117 112 108 99 85 74 68 61 54 45 33 25 21 15 11 13 20 24 23 23 22 19 15 13 12 10 10 10 9 7 7 5 2 1 1 1 2 3 1
154 160 158 156 161 168 174 182 189 196 204 207 210 215 218 218 218 215 207 202 200 193 184 180 179 177 180 183 182 176 171 159 142 130 131 138 155 167 158 145 133 127 126 129 131 127 118 112 109 100 87 78 66 56 52 41 27 19 14 8 4 9 17 22 24 24 23 19 17 16 14 12 10 10 10 9 8 7 6 5 4 4 5 6 7
158 166 168 169 176 179 184 193 199 202 206 209 210 214 219 221 219 213 204 198 194 189 182 178 177 177 177 179 180 181 180 171 155 141 141 144 148 153 149 141 133 130 130 132 135 130 118 109 105 98 88 79 62 47 39 30 17 10 6 2 358 2 12 21 27 28 25 22 20 19 17 15 13 12 11 10 8 7 8 8 7 6 6 7 7
184 185 182 185 187 188 192 199 203 205 209 211 211 213 216 217 215 208 198 190 187 183 179 176 178 181 180 180 184 186 187 191 194 182 165 158 153 150 146 142 137 134 133 136 137 133 123 113 108 100 89 75 54 34 22 11 1 357 359 2 6 12 19 24 27 28 27 24 22 22 21 19 16 14 13 12 10 9 9 9 10 8 6 5 5
194 186 183 186 188 190 194 198 205 215 218 215 213 211 207 207 209 205 195 187 180 177 177 178 182 183 182 185 198 207 214 225 216 189 169 161 158 156 154 151 147 143 143 143 138 130 123 119 115 104 86 63 41 23 8 355 349 353 1 10 21 30 32 32 31 30 29 26 24 24 24 22 19 17 15 13 12 12 11 11 12 12 11 10 9
185 179 180 182 182 184 191 197 206 213 210 202 196 191 189 194 199 193 184 178 174 176 181 183 184 184 187 200 211 212 212 208 192 175 164 159 156 152 153 159 157 151 148 146 140 131 122 115 109 100 83 59 34 21 10 2 3 9 12 20 34 45 45 41 37 33 31 29 26 25 25 24 21 18 15 14 15 17 16 16 15 14 16 17 16
169 168 171 174 175 179 189 192 190 190 186 177 172 172 177 186 191 186 176 170 171 176 179 180 179 181 185 183 174 169 175 179 175 169 165 162 160 154 154 160 162 157 152 147 143 142 137 122 109 101 89 67 37 23 19 19 23 26 24 30 47 57 53 45 41 37 34 32 29 26 26 27 25 21 19 19 20 20 19 19 19 18 19 21 22
161 163 167 172 174 178 184 185 182 182 183 179 175 174 173 173 179 183 180 174 174 177 177 175 174 172 169 162 152 149 159 167 170 172 173 173 172 171 168 169 170 167 159 148 141 145 150 140 126 113 95 71 41 25 23 26 29 32 35 44 58 61 53 45 42 39 35 33 31 28 28 28 27 24 23 24 25 24 23 22 21 21 21 23 25
154 156 162 168 172 174 175 176 177 179 182 184 185 186 178 165 169 178 182 183 187 188 184 180 176 168 162 160 159 157 157 159 166 174 175 174 175 179 181 183 176 162 155 153 153 156 162 157 143 127 102 73 42 25 21 23 28 34 41 51 61 63 55 47 43 38 34 32 31 30 29 29 28 26 26 28 28 27 26 25 23 22 24 25 27
156 159 161 165 169 172 174 177 176 173 175 180 181 182 180 174 171 175 182 192 200 200 196 190 182 169 164 167 169 167 163 160 165 171 172 173 176 178 178 179 174 159 150 154 165 175 180 178 169 152 114 69 37 23 20 22 26 33 41 50 59 61 55 48 43 39 36 33 32 31 30 29 29 28 29 32 34 31 29 28 27 25 25 26 26
164 169 168 167 171 176 182 187 189 189 193 196 194 191 191 189 186 187 192 198 201 203 202 198 190 179 174 177 180 179 176 171 169 170 171 175 177 173 166 168 178 178 171 168 179 188 189 188 188 177 120 56 32 29 30 29 27 28 33 43 55 59 53 47 44 41 38 35 33 33 30 28 29 31 32 36 39 37 34 33 32 31 30 29 28
175 181 186 190 190 190 191 193 195 200 207 209 209 208 209 210 211 215 216 209 203 204 206 203 194 185 181 184 189 192 192 186 180 179 181 186 185 181 184 191 193 190 186 184 188 198 199 195 195 191 123 40 30 33 33 30 28 29 28 33 52 63 54 48 45 43 40 37 35 33 30 27 29 33 35 38 42 42 39 37 37 36 35 34 33
188 188 192 197 198 197 200 203 206 210 214 216 218 220 221 222 225 227 224 217 212 209 208 205 199 192 186 187 192 195 193 185 179 180 188 200 205 209 219 212 195 184 182 184 187 194 201 201 201 202 194 25 26 31 27 25 29 35 29 24 41 71 66 55 48 44 43 41 37 33 30 28 30 34 36 38 41 43 43 43 42 41 41 39 38
177 199 208 210 207 206 208 211 215 220 221 221 224 226 226 229 235 238 236 236 235 228 216 207 201 197 194 194 195 196 193 185 177 174 181 198 212 219 214 201 191 185 186 188 187 191 199 202 202 206 215 309 9 21 23 22 24 28 26 22 30 66 72 59 51 47 44 38 32 32 35 33 33 37 40 39 40 44 47 48 48 47 45 43 42
86 93 149 204 211 216 220 224 229 233 232 229 230 232 233 238 245 247 245 244 243 234 223 214 207 203 201 200 199 198 194 189 184 180 178 189 203 203 191 187 191 196 198 194 189 190 198 204 211 220 230 265 335 7 17 16 13 9 9 13 20 57 87 69 56 53 50 36 29 35 44 45 41 41 43 42 42 45 49 51 51 51 48 46 45
90 88 86 93 104 104 188 253 247 244 241 240 242 245 248 252 254 252 248 246 238 226 220 218 213 207 204 203 203 200 196 193 194 191 186 186 192 191 183 184 193 197 195 191 186 188 198 207 215 223 233 250 276 315 356 5 5 2 1 2 2 19 123 106 67 60 59 44 34 39 53 58 50 47 48 49 49 49 51 53 55 54 52 50 52
Height
791 794 796 798 800 802 804 806 807 808 808 809 810 810 812 813 814 816 816 817 818 818 818 818 818 819 819 818 818 818 818 818 817 817 816 816 815 815 815 814 814 814 813 813 812 812 811 810 810 810 809 809 809 809 808 808 808 807 807 806 806 805 805 804 803 799 796 794 792 788 786 783 780 777 774 769 766 765 763 762 761 760 759 758 757
788 791 794 796 798 799 801 803 805 806 807 808 808 809 810 811 813 814 815 815 816 816 816 817 817 817 817 817 817 816 816 816 816 816 815 815 814 813 813 812 812 812 811 811 810 810 809 808 808 808 808 807 807 806 806 806 805 805 804 804 803 803 802 801 800 797 794 791 789 786 783 781 778 774 772 768 764 762 759 758 757 756 755 754 753
786 789 792 794 795 797 799 801 803 804 805 805 806 807 808 809 811 812 813 813 814 814 815 815 815 815 815 815 815 814 814 814 814 814 814 813 812 811 811 810 810 810 809 808 808 808 807 807 806 806 805 805 804 804 803 803 802 802 801 801 801 800 800 799 797 796 793 789 786 783 780 778 775 772 769 766 763 760 757 754 753 752 751 751 749
785 788 790 792 793 795 797 799 800 801 802 802 802 804 806 808 809 810 811 812 812 812 813 813 813 813 813 813 812 812 812 812 812 812 812 811 810 810 809 809 808 808 807 806 806 806 805 804 804 804 803 803 802 802 801 800 800 799 799 798 798 797 797 796 795 793 791 788 785 781 778 776 773 769 767 764 761 758 755 752 750 749 748 747 746
783 785 787 790 792 793 794 796 797 798 799 800 799 801 804 806 807 808 809 809 810 810 811 811 811 811 810 810 810 810 810 810 810 810 810 809 809 808 808 807 807 806 805 805 804 803 803 802 802 802 801 800 800 799 799 798 798 797 796 796 795 795 794 793 792 791 789 787 783 779 777 774 771 767 765 762 758 755 753 750 748 746 744 743 742
779 782 785 787 789 790 791 793 794 795 797 798 798 799 801 804 805 806 807 807 808 808 809 809 809 809 809 808 808 808 808 808 808 808 808 807 807 807 806 806 805 804 804 803 802 801 801 800 800 799 799 798 797 797 796 796 795 794 794 793 793 792 791 790 789 788 787 785 782 778 775 772 769 765 763 761 758 753 750 747 744 743 742 740 738
776 780 783 784 786 787 788 790 791 793 795 795 796 797 799 802 803 804 805 805 806 806 807 807 807 806 806 806 806 806 806 807 806 806 806 805 805 805 805 804 804 803 803 802 801 800 799 798 798 797 797 796 795 794 794 793 793 792 791 791 790 790 788 787 786 785 784 782 780 777 774 770 767 764 761 759 756 753 749 745 741 739 739 738 736
774 777 780 781 783 784 786 788 789 791 793 793 794 795 797 799 800 802 803 803 804 805 805 805 804 804 804 804 804 805 805 805 805 804 804 804 804 803 803 803 803 802 802 800 799 798 797 796 796 795 794 793 793 792 791 791 790 789 789 789 788 787 786 785 784 783 781 780 778 775 772 769 766 762 759 756 754 750 748 746 741 737 736 735 733
771 774 776 778 781 782 784 785 786 789 790 791 792 793 794 796 798 799 801 801 802 802 802 802 802 802 802 802 803 803 803 803 803 803 803 802 802 801 801 801 800 800 800 799 798 797 796 795 794 793 792 791 791 790 789 788 787 786 786 786 785 784 783 782 781 780 779 777 775 773 771 767 764 761 758 755 752 749 746 744 740 736 734 731 729
768 771 774 776 778 780 781 783 784 786 787 788 789 790 792 794 795 797 798 798 799 800 800 800 800 801 800 800 801 801 801 801 801 801 801 800 800 799 798 798 798 798 797 797 796 795 794 793 792 792 791 789 789 787 786 786 785 784 784 783 783 782 781 780 778 777 776 774 772 771 769 766 762 759 756 753 750 747 744 741 738 735 733 729 725
764 767 770 772 774 776 779 780 782 783 784 785 786 788 790 791 792 794 794 795 796 797 797 798 798 798 798 798 798 798 798 799 799 799 799 799 798 797 796 796 795 795 795 794 794 793 792 792 791 790 789 787 786 785 784 783 782 782 782 781 781 780 778 777 776 774 773 772 770 768 767 763 759 756 754 750 747 745 742 740 736 733 731 728 724
760 763 766 769 771 774 776 777 778 780 781 782 784 786 788 789 789 791 791 792 793 794 794 795 795 795 795 795 796 795 795 796 796 796 796 796 796 795 795 794 793 793 793 792 792 791 790 790 789 788 787 785 784 783 781 780 780 779 779 778 778 777 776 775 773 772 771 769 768 766 763 761 757 753 751 747 744 742 739 737 734 731 729 726 723
756 760 762 766 768 771 773 774 775 777 778 780 782 784 786 786 787 787 788 789 791 791 792 792 792 793 793 793 793 792 792 793 793 793 793 793 794 793 792 792 791 790 790 790 790 789 788 788 787 786 785 783 782 781 779 778 777 777 777 776 775 774 773 772 771 769 768 767 765 762 759 758 755 751 748 746 743 739 736 733 731 728 725 722 719
754 757 760 763 766 769 771 771 773 775 776 778 780 782 783 784 784 785 786 787 788 788 789 790 790 791 791 791 791 790 790 790 790 790 790 790 791 791 790 790 789 788 788 788 787 787 786 786 785 783 783 781 780 779 777 776 775 774 774 773 772 771 770 768 767 766 765 764 763 760 756 755 752 748 745 744 741 738 733 730 727 724 721 718 715
751 754 757 761 765 768 768 769 771 772 774 776 778 779 781 781 782 784 784 785 785 786 787 788 788 789 789 789 788 788 788 788 788 788 788 788 788 788 788 787 786 786 785 785 785 784 784 783 782 781 780 779 778 776 775 773 772 772 771 770 769 768 766 765 764 763 762 761 760 757 754 752 750 746 743 740 738 735 731 727 723 720 717 713 709
751 755 758 761 765 766 766 767 769 770 772 774 776 777 778 779 780 782 783 783 784 784 785 786 786 787 787 787 786 786 785 786 786 786 786 786 786 786 785 785 784 783 783 783 783 782 781 780 779 778 777 776 775 774 772 771 770 769 769 767 766 764 763 762 762 760 759 758 756 754 751 749 747 744 740 737 734 730 727 723 719 716 713 708 704
752 756 759 761 762 764 764 765 767 768 770 772 773 774 775 777 779 781 782 783 783 784 784 785 785 786 785 785 784 784 783 783 783 783 783 783 783 783 783 782 781 781 781 781 780 779 779 778 777 776 774 773 772 771 770 769 768 767 766 764 763 761 760 759 758 757 756 754 752 750 748 746 744 740 737 733 730 727 723 718 715 712 708 704 699
749 752 755 757 759 761 763 763 764 766 767 768 769 770 773 776 778 779 780 781 781 781 782 783 784 785 784 784 783 782 781 780 780 780 781 781 781 781 781 780 779 779 779 778 778 777 776 775 774 773 772 770 770 769 768 767 766 765 764 762 760 758 757 756 754 753 752 750 748 746 744 742 740 737 733 730 726 723 720 714 710 707 702 699 694
746 747 750 753 757 759 760 760 762 763 764 764 766 768 770 771 773 774 775 776 777 778 778 779 780 782 784 784 782 780 779 778 778 779 778 779 779 778 778 777 777 777 777 776 776 775 774 773 772 770 769 768 767 766 765 765 764 763 761 760 758 757 755 754 752 749 747 746 744 742 741 739 736 732 729 725 721 718 715 710 706 701 697 693 690
743 746 748 752 755 756 757 758 759 760 761 762 763 765 767 768 770 772 773 774 775 775 775 775 774 775 777 778 778 779 778 777 776 776 776 777 776 776 775 775 775 775 775 774 774 773 772 771 769 768 767 766 765 764 763 763 761 760 759 758 757 755 753 752 750 747 745 743 741 740 737 735 732 729 725 721 716 713 709 705 701 696 691 687 684
743 745 748 750 753 753 754 756 758 758 759 760 762 763 765 766 768 769 771 772 772 771 771 772 772 772 773 773 774 776 778 778 775 774 774 774 774 773 772 772 773 773 773 772 771 770 769 768 767 766 764 763 762 762 761 760 759 758 757 757 756 754 752 750 748 746 744 741 739 737 734 732 729 725 721 716 712 707 703 698 694 689 685 681 677
742 744 746 748 750 751 753 755 756 757 758 759 761 762 763 764 765 767 769 769 768 768 768 769 770 770 771 771 769 771 774 775 774 773 772 771 770 770 770 770 770 771 770 770 769 768 767 766 765 763 762 761 760 759 758 758 757 757 756 755 754 752 750 748 746 744 742 740 737 735 732 730 726 722 717 712 707 702 697 691 686 681 676 672 668
742 743 745 746 747 749 751 753 754 755 756 758 759 760 761 762 763 764 765 765 765 765 766 767 768 768 768 768 766 766 768 769 770 770 770 768 768 767 767 768 768 768 768 767 766 765 765 764 762 761 760 759 758 757 756 756 756 755 755 754 752 751 749 747 745 743 741 738 736 733 731 728 724 719 714 709 702 696 691 684 678 672 666 661 658
742 742 743 745 746 748 750 751 752 753 754 756 758 758 759 760 760 761 761 761 762 763 763 765 766 765 764 765 764 764 766 766 766 767 767 766 765 765 765 765 765 766 766 765 764 763 763 762 760 759 757 756 756 755 754 755 755 754 753 752 751 749 747 745 744 742 740 737 734 732 729 726 723 718 712 707 700 694 687 680 672 664 656 650 648
740 740 742 743 745 747 748 749 750 751 752 754 755 755 757 757 757 757 758 759 760 761 761 762 762 761 762 762 761 762 764 764 764 764 764 764 763 763 763 763 763 763 763 762 762 761 760 760 758 757 756 754 754 753 753 754 753 753 752 751 749 747 746 744 743 741 739 736 734 731 728 725 721 716 711 705 699 692 684 676 667 658 649 643 642
740 739 740 741 743 744 745 746 748 749 751 752 752 753 754 754 754 755 756 757 758 759 759 759 759 759 759 759 759 760 760 760 761 761 761 761 760 760 760 760 761 761 761 760 760 759 758 758 756 755 754 753 752 753 753 753 752 752 751 750 748 746 744 743 742 740 738 736 733 730 727 723 719 714 709 703 697 691 684 675 666 657 648 640 638
741 738 738 739 740 741 742 744 746 747 749 749 750 751 751 752 752 753 754 755 756 757 757 757 757 757 757 757 757 757 757 757 758 758 758 758 758 758 758 759 759 759 759 758 758 757 757 756 754 753 752 752 752 753 752 752 751 751 750 749 747 745 744 742 741 740 738 736 733 730 726 722 718 713 708 702 697 691 685 678 669 661 652 644 639
738 738 738 738 739 740 741 743 744 745 746 747 748 748 749 749 750 751 752 754 754 755 755 755 755 755 755 755 755 754 754 754 755 756 756 756 756 757 757 757 757 757 757 757 756 756 755 754 753 752 752 752 752 752 752 751 750 750 749 748 746 744 742 741 740 738 737 735 732 729 725 721 717 712 707 703 698 692 687 681 673 667 660 651 645
736 738 738 738 739 739 740 742 742 743 744 744 745 746 747 748 749 750 751 752 752 753 753 752 753 753 753 752 752 752 751 752 752 754 755 755 756 755 755 755 755 755 755 755 755 755 754 753 752 752 751 751 751 751 751 750 750 749 748 747 745 743 741 740 738 737 735 734 731 728 725 721 717 713 708 704 699 694 689 684 677 670 664 657 650
735 737 736 737 738 739 739 740 741 741 742 742 744 745 745 747 748 749 749 750 750 750 750 750 750 750 750 750 750 750 750 750 751 753 753 754 754 754 753 754 754 754 754 754 755 755 754 753 752 751 751 751 751 751 751 750 749 749 748 746 744 742 741 739 738 736 735 733 731 729 725 721 718 713 710 706 701 695 691 687 681 674 667 660 655
735 736 736 737 737 737 738 739 739 740 741 741 743 744 745 746 747 748 748 748 748 748 748 748 748 748 749 749 749 749 750 750 751 752 752 752 753 753 752 752 752 753 754 754 755 755 754 753 752 751 751 751 751 751 751 750 749 749 747 746 744 742 741 740 738 736 735 733 731 729 725 722 719 715 711 708 703 697 692 688 683 677 670 664 661
735 736 735 735 736 736 737 738 738 739 740 741 742 743 744 745 746 747 747 747 747 747 747 747 747 747 748 748 748 749 749 749 750 750 751 751 751 751 751 751 751 752 753 753 755 755 754 753 752 752 751 751 751 751 751 750 750 749 747 746 745 743 741 740 738 736 735 733 731 729 726 722 719 716 712 709 704 699 694 689 684 679 674 668 664
734 734 734 734 735 736 737 737 738 739 739 740 741 742 742 743 744 745 746 746 746 746 746 746 747 747 747 748 748 748 749 749 749 749 749 749 749 749 749 750 750 751 752 753 753 754 754 753 753 752 752 752 752 752 751 751 750 749 748 747 745 744 742 741 738 736 735 733 732 729 726 723 720 716 713 709 706 702 697 692 687 683 677 672 668
733 733 733 734 735 736 737 737 738 738 739 740 740 741 741 742 742 743 744 745 745 746 746 746 747 747 747 748 748 748 748 748 748 748 748 748 748 748 748 749 750 751 752 753 753 753 754 754 754 753 753 752 752 752 752 751 750 749 748 747 746 744 743 741 738 736 735 733 732 729 727 724 720 716 713 710 707 704 699 694 690 686 682 677 673
732 732 733 734 735 736 736 737 737 738 738 739 739 740 740 740 741 742 742 743 744 745 746 746 747 747 747 748 748 748 748 748 748 748 748 747 747 748 749 750 751 751 752 753 753 754 754 754 754 754 754 753 753 752 752 751 750 749 748 747 746 744 743 740 738 737 735 733 731 729 727 724 721 718 715 712 709 706 701 697 694 691 687 682 678
731 733 733 734 735 735 736 736 737 737 738 738 739 739 739 739 740 741 742 743 744 745 745 746 747 747 748 748 748 748 749 749 749 749 749 748 748 748 749 750 751 751 752 753 753 754 754 754 754 754 754 753 753 752 752 751 750 749 748 747 746 744 742 741 739 737 735 733 732 729 727 724 721 719 716 713 711 708 705 701 697 694 691 687 684
732 734 734 735 735 735 736 736 737 737 738 738 738 739 738 739 739 740 741 742 743 744 745 746 746 747 748 748 748 749 749 750 750 750 750 750 749 749 749 750 750 751 752 753 753 754 754 754 754 754 754 754 753 752 752 751 750 749 748 747 746 744 743 741 739 738 736 734 732 730 727 725 722 720 717 714 712 709 706 703 700 696 693 690 687
733 734 734 735 735 736 737 737 737 737 738 738 738 738 738 738 739 740 740 741 742 743 744 745 746 747 747 748 748 749 750 750 751 750 750 750 750 750 750 751 751 752 752 753 754 754 754 754 754 754 754 754 753 752 752 751 750 749 748 747 746 744 743 742 740 738 736 735 732 730 728 726 723 721 719 716 714 711 708 705 702 699 696 692 690
733 733 734 735 735 736 737 737 737 737 737 737 737 738 738 738 738 739 740 741 741 742 743 744 745 746 747 748 749 749 750 750 750 750 750 750 750 751 751 751 752 752 753 753 754 754 754 754 754 754 754 753 753 752 752 751 750 749 748 747 745 744 743 742 740 739 737 735 733 731 729 726 724 722 720 718 715 713 710 708 705 702 699 696 693
732 733 734 734 735 736 737 737 737 737 737 737 737 736 737 738 738 739 740 740 741 742 743 744 745 746 747 748 748 749 749 749 749 750 750 750 751 751 751 752 752 753 753 753 754 754 754 754 754 754 754 753 753 753 752 751 749 749 748 746 745 744 743 742 741 739 738 736 734 732 730 727 725 723 721 719 717 714 712 709 707 705 702 699 696
731 732 733 734 735 736 736 737 737 737 736 736 736 736 737 738 738 739 740 740 742 743 744 744 745 746 747 748 748 748 748 748 748 749 750 750 751 751 752 753 753 753 753 753 753 754 754 754 754 754 753 753 753 753 752 750 749 749 748 747 746 745 744 743 741 740 738 737 735 733 731 729 727 725 723 720 718 715 713 711 708 706 704 701 698
731 732 733 734 735 736 736 737 737 736 736 736 736 736 737 738 738 739 740 741 742 743 744 745 746 747 747 748 748 748 748 748 748 749 750 750 751 752 752 753 753 753 753 753 753 754 754 754 754 754 753 753 753 753 752 751 750 749 748 747 746 746 745 743 742 741 739 738 736 734 732 730 728 726 724 722 719 717 714 712 710 708 705 703 701
732 732 733 734 735 736 736 736 736 736 736 736 736 737 738 738 739 740 740 741 743 743 744 745 746 747 747 748 748 748 748 748 749 750 750 751 752 752 752 753 753 753 754 753 753 754 754 753 753 753 753 753 753 753 752 751 750 750 749 748 747 746 745 744 743 741 740 738 737 735 733 731 729 728 726 724 721 719 716 714 711 709 707 705 703
731 732 733 734 735 736 736 736 736 736 736 736 737 737 738 738 739 740 740 741 742 743 744 745 745 746 747 748 748 748 748 748 749 750 750 750 751 752 752 752 753 753 753 753 753 753 753 753 753 753 753 753 753 753 752 751 751 750 749 749 748 747 746 745 744 742 740 739 738 736 734 733 731 729 728 725 723 721 718 716 714 712 710 708 706
731 732 733 734 735 736 736 736 736 736 736 737 737 737 738 738 739 740 740 741 741 742 743 744 744 745 746 747 747 747 747 748 748 749 749 750 751 751 751 752 752 753 753 753 753 753 753 753 753 753 753 753 754 753 753 752 751 751 750 749 749 748 747 746 745 743 742 740 739 737 736 734 732 731 729 727 725 723 721 719 717 714 712 710 709
731 732 732 733 734 735 735 735 736 736 736 737 737 737 738 739 739 739 740 740 740 741 742 742 743 744 745 746 747 747 747 747 748 748 749 750 750 751 751 752 752 753 753 753 754 753 753 753 753 753 753 754 754 753 753 753 752 751 751 750 750 749 748 747 746 744 743 741 740 738 737 735 734 733 731 729 728 726 724 721 719 717 715 714 712
730 731 732 732 733 734 734 735 735 736 736 736 737 737 738 738 738 739 739 739 740 740 740 741 742 743 744 745 746 746 746 747 747 748 749 750 750 751 751 752 752 753 753 753 754 754 753 753 754 754 754 754 754 754 754 753 752 752 752 751 750 750 749 748 747 746 744 743 741 740 738 737 735 734 733 731 730 728 726 724 722 720 718 716 715
729 730 731 732 732 733 734 734 734 735 735 736 736 737 737 737 737 737 738 738 738 739 739 739 740 741 742 743 744 745 746 747 747 747 748 749 750 750 751 751 752 752 753 753 754 754 753 753 754 754 754 754 754 754 754 754 753 753 752 752 751 750 749 749 748 746 745 744 742 741 740 738 737 735 734 732 731 730 728 726 725 723 721 719 718
730 730 731 731 731 732 732 733 733 733 734 734 735 735 735 736 736 735 736 736 736 737 737 738 738 739 740 741 742 744 745 745 746 746 747 748 749 750 750 750 751 752 752 753 753 753 753 753 754 754 754 755 755 755 755 754 753 753 753 752 751 751 750 749 748 747 746 745 744 742 741 740 738 736 735 734 733 731 730 728 727 725 724 722 721
729 729 730 731 731 731 732 732 732 732 732 733 733 734 734 734 734 733 734 734 734 735 736 736 736 737 738 739 740 742 743 743 744 745 745 746 747 749 749 750 750 751 752 752 753 753 753 753 754 754 755 755 755 755 755 754 754 753 752 752 751 751 750 750 749 748 747 746 745 744 742 741 740 738 736 735 734 733 731 730 729 727 726 725 724
729 729 730 730 731 731 731 731 731 731 732 732 732 732 732 731 731 731 731 731 732 732 733 734 734 735 736 737 738 740 740 741 742 743 744 744 746 747 748 749 750 750 751 752 752 752 753 753 754 754 755 755 755 755 755 755 754 753 752 752 751 750 750 750 749 748 747 747 746 745 744 742 741 740 738 737 736 734 733 732 731 730 729 727 726